sat.trackr.live / text

‹ back to catalog

STARLINK-37510

NORAD 69520 · 2026-133N

PAYLOAD ACTIVE UNKNOWN

§ Identity

Operator
Country
US
Launch date
2026-06-12
Launch site
AFETR
Launch vehicle
Mass (kg)
RCS (m²)

Purposes: comms

External: N2YO · Heavens-Above · Gunter

§ Orbital elements

Epoch: 2026-09-20T04:08:41.979840Z

Period
93.85 min
Inclination
53.1568°
Eccentricity
0.0001266
Mean motion
15.34386181 rev/d
Perigee alt
461.9 km
Apogee alt
463.6 km
Semi-major
6,840.9 km
B*
4.2054e-4
RAAN
231.2635°
Arg perigee
85.1313°
Mean anomaly
274.9834°
Rev number
1,671

§ Raw data

STARLINK-375101 69520U 26133N   26263.17270810  .00013852  00000+0  42054-3 0  99982 69520  53.1568 231.2635 0001266  85.1313 274.9834 15.34386181 16712

JSON: /api/v1/satellites/69520 · /tle

For live sub-satellite position, see the globe view (requires WebGL).

§ Visibility from observer

Set your observer location to see the next 7 days of passes ≥ 10°. The values pass through the URL so the page stays shareable.

No JS? Fill the form by hand. The geolocation button needs JavaScript.